This is the latest recevied weather packets stored in our database for station/object KC2TER. If no packets are shown the sender has not sent any weather packets the latest 10 day(s).
| Time | Temp. | Humidity | Pressure | Rain* | Wind** | Luminosity | Snow |
|---|---|---|---|---|---|---|---|
| 1777596086 | 11.11° C | 94% | 1008.3 hPa | 0 mm | - | 0 W/m² | - |
| 1777595782 | 11.11° C | 94% | 1008.4 hPa | 0 mm | - | 0 W/m² | - |
| 1777595477 | 11.11° C | 94% | 1008.1 hPa | 0 mm | - | 0 W/m² | - |
| 1777595174 | 11.11° C | 94% | 1008.5 hPa | 0 mm | - | 0 W/m² | - |
| 1777594870 | 11.67° C | 94% | 1008.5 hPa | 0 mm | - | 0 W/m² | - |
| 1777594566 | 11.67° C | 93% | 1008.4 hPa | 0 mm | - | 0 W/m² | - |
| 1777594263 | 11.67° C | 92% | 1008.3 hPa | 0 mm | - | 0 W/m² | - |
| 1777593959 | 11.67° C | 92% | 1008.2 hPa | 0 mm | - | 0 W/m² | - |
| 1777593655 | 12.22° C | 92% | 1008 hPa | 0 mm | - | 0 W/m² | - |
| 1777593351 | 12.22° C | 92% | 1008.1 hPa | 0 mm | - | 0 W/m² | - |
| 1777593049 | 12.22° C | 91% | 1008.1 hPa | 0 mm | - | 0 W/m² | - |
| 1777592749 | 12.78° C | 91% | 1008.1 hPa | 0 mm | - | 2 W/m² | - |
| 1777592445 | 12.78° C | 90% | 1007.9 hPa | 0 mm | - | 4 W/m² | - |
| 1777592141 | 12.78° C | 89% | 1008 hPa | 0 mm | - | 7 W/m² | - |
| 1777591839 | 12.78° C | 89% | 1007.8 hPa | 0 mm | - | 11 W/m² | - |
| 1777591534 | 12.78° C | 88% | 1007.7 hPa | 0 mm | - | 14 W/m² | - |
| 1777591231 | 13.33° C | 87% | 1007.6 hPa | 0 mm | - | 15 W/m² | - |
| 1777590931 | 13.33° C | 87% | 1007.6 hPa | 0 mm | - | 17 W/m² | - |
| 1777590627 | 13.33° C | 87% | 1007.5 hPa | 0 mm | - | 20 W/m² | - |
| 1777590323 | 13.33° C | 87% | 1007.7 hPa | 0 mm | - | 26 W/m² | - |
| 1777590021 | 13.33° C | 86% | 1008 hPa | 0 mm | - | 39 W/m² | - |
| 1777589717 | 13.89° C | 86% | 1007.8 hPa | 0 mm | - | 35 W/m² | - |
| 1777589415 | 13.89° C | 86% | 1007.5 hPa | 0 mm | - | 38 W/m² | - |
| 1777589111 | 13.89° C | 86% | 1007.6 hPa | 0 mm | - | 38 W/m² | - |
| 1777588807 | 13.89° C | 86% | 1007.7 hPa | 0 mm | - | 46 W/m² | - |
* Rain latest hour (hover to see other rain measurements)
** Current wind speed in m/s (hover to see current wind gust speed)